Weather History for Whiting Fld NAS, FL

Change the Weather History Date:

Saturday, February 8, 2014

  Actual Average Record
Temperature  
Mean Temperature 54 °F -  
Max Temperature 66 °F 61 °F 77 °F (1999)
Min Temperature 42 °F 43 °F 31 °F (2006)
Degree Days  
Heating Degree Days 11    
Growing Degree Days 4 (Base 50)    
Moisture  
Dew Point 42 °F    
Average Humidity 69    
Maximum Humidity 93    
Minimum Humidity 42    
Precipitation  
Precipitation 0.01 in - - ()
Sea Level Pressure  
Sea Level Pressure 30.14 in    
Wind  
Wind Speed 4 mph (NNW)    
Max Wind Speed 10 mph    
Max Gust Speed -    
Visibility 9 miles    
Events Rain    
Averages and records for this station are not official NWS values.
T = Trace of Precipitation, MM = Missing Value Source: NWS Daily Summary

Daily Weather History Graph

Daily Weather History Graph

Search for Another Location

Airport:

Trip Planner

Search our weather history database for the weather conditions in past years. The results will help you decide how hot, cold, wet, or windy it might be!

Date:

Astronomy

Feb. 08, 2014 Rise Set
Actual Time 6:34 AM CST 5:30 PM CST
Civil Twilight 6:09 AM CST 5:55 PM CST
Nautical Twilight 5:41 AM CST 6:23 PM CST
Astronomical Twilight 5:12 AM CST 6:52 PM CST
Moon 12:30 PM CST (2/8) 1:41 AM CST (2/8)
Length of Visible Light 11h 45m
Length of Day
10h 55m
Waxing Gibbous, 69% of the Moon is Illuminated
Feb 8
Waxing Gibbous
Feb 14
Full
Feb 22
Last Quarter
Mar 1
New
Mar 8
First Quarter

Hourly Weather History & Observations

Time (CST) Temp. Windchill Dew Point Humidity Pressure Visibility Wind Dir Wind Speed Gust Speed Precip Events Conditions
12:56 AM 43.0 °F 38.8 °F 39.9 °F 89% 30.14 in 9.0 mi NE 6.9 mph - 0.00 in Rain Light Rain
1:56 AM 43.0 °F 40.3 °F 41.0 °F 93% 30.15 in 10.0 mi NE 4.6 mph - 0.00 in Rain Light Rain
2:56 AM 44.1 °F - 42.1 °F 93% 30.16 in 10.0 mi Calm Calm - 0.00 in Rain Light Rain
3:56 AM 43.0 °F 41.3 °F 41.0 °F 93% 30.14 in 6.0 mi ENE 3.5 mph - 0.00 in Rain Light Rain
4:56 AM 43.0 °F 41.3 °F - N/A% 30.18 in 4.0 mi North 3.5 mph - 0.01 in Rain Rain
5:56 AM 42.1 °F 38.4 °F - N/A% 30.18 in 7.0 mi North 5.8 mph - 0.00 in Rain Light Rain
6:56 AM 42.1 °F 40.2 °F - N/A% 30.19 in 6.0 mi NNW 3.5 mph - 0.00 in   Haze
7:56 AM 44.1 °F 42.5 °F - N/A% 30.19 in 7.0 mi North 3.5 mph - N/A   Clear
8:56 AM 48.9 °F - - N/A% 30.21 in 8.0 mi Variable 4.6 mph - N/A   Clear
9:56 AM 52.0 °F - - N/A% 30.20 in 8.0 mi Calm Calm - N/A   Clear
10:56 AM 57.0 °F - 44.1 °F 62% 30.18 in 9.0 mi Variable 3.5 mph - N/A   Clear
11:56 AM 60.1 °F - 43.0 °F 53% 30.14 in 10.0 mi Calm Calm - N/A   Clear
12:56 PM 63.0 °F - 43.0 °F 48% 30.12 in 10.0 mi Variable 4.6 mph - N/A   Clear
1:56 PM 64.0 °F - 43.0 °F 46% 30.10 in 10.0 mi WNW 4.6 mph - N/A   Clear
2:56 PM 66.0 °F - 42.1 °F 42% 30.09 in 10.0 mi NW 10.4 mph - N/A   Clear
3:56 PM 64.0 °F - 41.0 °F 43% 30.09 in 10.0 mi WNW 8.1 mph - N/A   Clear
4:56 PM 63.0 °F - 41.0 °F 45% 30.09 in 10.0 mi WNW 3.5 mph - N/A   Clear
5:56 PM 54.0 °F - 43.0 °F 66% 30.10 in 10.0 mi SSW 5.8 mph - N/A   Clear
6:56 PM 51.1 °F - 43.0 °F 74% 30.11 in 10.0 mi SSW 5.8 mph - N/A   Clear
7:56 PM 46.9 °F - 41.0 °F 80% 30.12 in 10.0 mi WSW 3.5 mph - N/A   Clear
8:56 PM 48.0 °F - 39.9 °F 74% 30.12 in 10.0 mi Calm Calm - N/A   Clear
9:56 PM 46.9 °F - 39.9 °F 77% 30.12 in 10.0 mi Calm Calm - N/A   Clear
10:56 PM 45.0 °F 41.8 °F 39.9 °F 82% 30.13 in 10.0 mi NW 5.8 mph - N/A   Clear
11:56 PM 45.0 °F 42.6 °F 39.9 °F 82% 30.12 in 10.0 mi NNW 4.6 mph - N/A   Clear